Location: Borger
(52.9222°N, 6.7926°E)
Time: 22:37:39
(UTC+00:00)

Cosmos 1634 Rocket - Pass Details

Date: 15 May 2026
Orbit: 960 x 990 km, 82.9° (Epoch: 10 June)

Event Time Altitude Azimuth Distance (km) Brightness Sun altitude
Exits shadow 22:22:34 22° 189° (S) 1,970 5.1 -16.6°
Maximum altitude 22:26:46 89° 276° (W) 973 4.0 -16.8°
Drops below altitude 10° 22:33:02 10° 10° (N) 2,725 7.4 -17.0°
Sets 22:35:33 0° 11° (N) 3,681 8.2 -17.1°
